DW4641 Weather Reports


Display with metric or nautical units.
time (UTC)temp
F
wind
direction
speed
MPH
gust
MPH
rain 1hr
in
rain 24hr
in
rain mn
in
humidity
%
barometer
mb
20170624000807 75 242 2.0 7.0 0.00 0.00 0.00 84 1002.4
20170624000310 75 203 3.0 8.0 0.00 0.00 0.00 84 1002.4
20170623235805 75 187 3.0 8.0 0.00 0.00 0.00 84 1002.4
20170623235308 75 216 3.0 6.0 0.00 0.00 0.00 84 1002.2
20170623234812 75 190 1.0 7.0 0.00 0.00 0.00 84 1002.3
20170623234317 75 271 3.0 8.0 0.00 0.00 0.00 84 1002.6
20170623233820 75 212 2.0 6.0 0.00 0.00 0.00 84 1002.7
20170623233303 75 178 3.0 8.0 0.00 0.00 0.00 84 1002.8
20170623232807 75 234 3.0 8.0 0.00 0.00 0.00 83 1002.8
20170623232310 76 160 3.0 8.0 0.00 0.00 0.00 83 1002.5
20170623231814 76 198 3.0 10.0 0.00 0.00 0.00 83 1002.5
20170623231307 76 178 3.0 7.0 0.00 0.00 0.00 82 1002.8
20170623230805 76 184 2.0 8.0 0.00 0.00 0.00 82 1002.6
20170623230309 76 213 2.0 8.0 0.00 0.00 0.00 82 1002.5
20170623225807 77 188 3.0 7.0 0.00 0.00 0.00 81 1002.5
20170623225310 77 184 4.0 8.0 0.00 0.00 0.00 81 1002.4
20170623224812 77 234 3.0 8.0 0.00 0.00 0.00 81 1002.4
20170623224315 77 213 3.0 6.0 0.00 0.00 0.00 82 1002.4
20170623223818 76 198 3.0 6.0 0.00 0.00 0.00 82 1002.5
20170623223322 76 232 3.0 8.0 0.00 0.00 0.00 82 1002.5
20170623222807 76 224 4.0 10.0 0.00 0.00 0.00 82 1002.6
20170623222310 76 178 2.0 10.0 0.00 0.00 0.00 82 1002.7
20170623221814 76 211 4.0 9.0 0.00 0.00 0.00 82 1002.8
20170623221311 76 197 4.0 7.0 0.00 0.00 0.00 82 1002.9
20170623220809 76 222 3.0 7.0 0.00 0.00 0.00 82 1003.0
20170623220312 76 188 4.0 9.0 0.00 0.00 0.00 82 1003.0
20170623215807 76 236 4.0 9.0 0.00 0.00 0.00 82 1003.1
20170623215309 76 205 4.0 9.0 0.00 0.00 0.00 82 1003.0
20170623214812 76 216 3.0 10.0 0.00 0.00 0.00 82 1002.9
20170623214317 76 202 1.0 10.0 0.00 0.00 0.00 82 1002.9
20170623213820 76 221 4.0 7.0 0.00 0.00 0.00 81 1003.1
20170623213303 76 191 2.0 6.0 0.00 0.00 0.00 81 1003.1
20170623212807 77 197 3.0 6.0 0.00 0.00 0.00 81 1003.1
20170623212310 77 188 3.0 7.0 0.00 0.00 0.00 81 1003.1
20170623211813 77 211 5.0 9.0 0.00 0.00 0.00 80 1003.1
20170623211310 77 223 2.0 9.0 0.00 0.00 0.00 80 1003.0
20170623210808 77 215 2.0 7.0 0.00 0.00 0.00 81 1003.0
20170623210311 77 260 4.0 7.0 0.00 0.00 0.00 81 1003.1
20170623205806 76 206 3.0 9.0 0.00 0.00 0.00 82 1003.1
20170623205310 76 213 5.0 10.0 0.00 0.00 0.00 81 1003.2
20170623204812 76 202 4.0 10.0 0.00 0.00 0.00 82 1003.3
20170623204317 76 217 2.0 8.0 0.00 0.00 0.00 82 1003.3
20170623203819 76 192 4.0 9.0 0.00 0.00 0.00 81 1003.3
20170623203303 76 212 4.0 9.0 0.00 0.00 0.00 81 1003.3
20170623202805 76 221 4.0 9.0 0.00 0.00 0.00 80 1003.2
20170623202309 77 195 3.0 10.0 0.00 0.00 0.00 80 1003.3
20170623201812 77 200 5.0 10.0 0.00 0.00 0.00 80 1003.3
20170623201309 77 250 5.0 10.0 0.00 0.00 0.00 80 1003.4
20170623200807 77 184 4.0 10.0 0.00 0.00 0.00 80 1003.4
20170623200311 77 212 5.0 11.0 0.00 0.00 0.00 81 1003.5
20170623195807 77 210 5.0 11.0 0.00 0.00 0.00 81 1003.5
20170623195310 77 215 4.0 8.0 0.00 0.00 0.00 82 1003.5
20170623194812 76 173 3.0 9.0 0.00 0.00 0.00 82 1003.5
20170623194317 76 232 3.0 8.0 0.00 0.00 0.00 83 1003.5
20170623193819 75 185 4.0 11.0 0.00 0.00 0.00 82 1003.5
20170623193303 75 182 3.0 7.0 0.00 0.00 0.00 83 1003.5
20170623192806 76 193 3.0 7.0 0.00 0.00 0.00 83 1003.6
20170623192309 76 194 2.0 11.0 0.00 0.00 0.00 83 1003.6
20170623191812 77 185 4.0 11.0 0.00 0.00 0.00 82 1003.7
20170623191308 77 195 4.0 13.0 0.00 0.00 0.00 80 1003.8
20170623190806 78 227 4.0 13.0 0.00 0.00 0.00 77 1003.7
20170623190310 79 182 5.0 11.0 0.00 0.00 0.00 76 1003.6
20170623185806 80 182 5.0 11.0 0.00 0.00 0.00 75 1003.7
20170623185309 80 205 3.0 9.0 0.00 0.00 0.00 76 1003.7
20170623184812 80 216 5.0 9.0 0.00 0.00 0.00 74 1003.8
20170623184306 80 215 4.0 9.0 0.00 0.00 0.00 75 1003.8
20170623183804 80 225 3.0 11.0 0.00 0.00 0.00 75 1003.9
20170623183307 81 232 4.0 11.0 0.00 0.00 0.00 74 1004.0
20170623182811 81 216 5.0 10.0 0.00 0.00 0.00 74 1004.0
20170623182314 81 184 3.0 10.0 0.00 0.00 0.00 73 1004.0
20170623181813 81 205 6.0 12.0 0.00 0.00 0.00 72 1004.0
20170623181308 82 210 5.0 10.0 0.00 0.00 0.00 73 1004.1
20170623180807 82 217 4.0 9.0 0.00 0.00 0.00 73 1004.2
20170623180309 82 191 3.0 11.0 0.00 0.00 0.00 72 1004.2
20170623175806 82 198 4.0 12.0 0.00 0.00 0.00 73 1004.3
20170623175309 82 188 4.0 12.0 0.00 0.00 0.00 76 1004.4
20170623174812 81 220 4.0 12.0 0.00 0.00 0.00 76 1004.6
20170623174302 81 209 4.0 11.0 0.00 0.00 0.00 75 1004.7
20170623173821 81 190 2.0 11.0 0.00 0.00 0.00 77 1004.7
20170623173304 81 196 5.0 10.0 0.00 0.00 0.00 77 1004.8
20170623172807 80 192 3.0 10.0 0.00 0.00 0.00 78 1004.9
20170623172310 80 180 4.0 9.0 0.00 0.00 0.00 79 1005.0
20170623171813 79 192 4.0 8.0 0.00 0.00 0.00 79 1005.1
20170623171312 79 203 4.0 9.0 0.00 0.00 0.00 80 1005.3
20170623170810 79 282 3.0 12.0 0.00 0.00 0.00 80 1005.3
20170623170314 79 210 3.0 13.0 0.00 0.00 0.00 81 1005.3
20170623165809 79 205 5.0 12.0 0.00 0.00 0.00 80 1005.4
20170623165313 79 221 5.0 11.0 0.00 0.00 0.00 80 1005.5
20170623164811 79 241 5.0 11.0 0.00 0.00 0.00 79 1005.6
20170623164304 79 188 5.0 10.0 0.00 0.00 0.00 80 1005.6
20170623163803 79 211 4.0 11.0 0.00 0.00 0.00 80 1005.7
20170623163305 79 227 4.0 10.0 0.00 0.00 0.00 80 1005.8
20170623162808 79 217 3.0 10.0 0.00 0.00 0.00 81 1005.8
20170623162311 79 192 5.0 10.0 0.00 0.00 0.00 81 1005.9
20170623161812 79 240 4.0 10.0 0.00 0.00 0.00 81 1005.9
20170623161305 79 187 5.0 9.0 0.00 0.00 0.00 80 1006.0
20170623160804 79 196 4.0 10.0 0.00 0.00 0.00 80 1006.2
20170623160308 79 212 4.0 10.0 0.00 0.00 0.00 79 1006.3
20170623155806 80 234 5.0 11.0 0.00 0.00 0.00 77 1006.3
20170623155310 81 185 5.0 11.0 0.00 0.00 0.00 76 1006.3
20170623154811 81 191 3.0 9.0 0.00 0.00 0.00 77 1006.5
20170623154306 81 190 1.0 6.0 0.00 0.00 0.00 77 1006.4
20170623153806 81 228 2.0 3.0 0.00 0.00 0.00 77 1006.4
20170623153309 81 231 1.0 5.0 0.00 0.00 0.00 75 1006.6
20170623152812 82 231 1.0 5.0 0.00 0.00 0.00 75 1006.6
20170623152314 82 252 1.0 4.0 0.00 0.00 0.00 74 1006.5
20170623151813 82 228 1.0 6.0 0.00 0.00 0.00 76 1006.5
20170623151307 82 225 4.0 6.0 0.00 0.00 0.00 75 1006.7
20170623150805 81 180 2.0 6.0 0.00 0.00 0.00 77 1006.7
20170623150308 81 221 4.0 6.0 0.00 0.00 0.00 76 1006.8
20170623145806 80 246 2.0 8.0 0.00 0.00 0.00 78 1006.8
20170623145309 80 189 2.0 8.0 0.00 0.00 0.00 80 1006.9
20170623144811 80 193 3.0 7.0 0.00 0.00 0.00 79 1006.9
20170623144306 79 194 3.0 6.0 0.00 0.00 0.00 79 1007.0
20170623143805 79 197 2.0 6.0 0.00 0.00 0.00 81 1007.0
20170623143307 78 188 2.0 6.0 0.00 0.00 0.00 80 1007.3
20170623142809 78 194 3.0 6.0 0.00 0.00 0.00 80 1007.3
20170623142310 78 196 2.0 4.0 0.00 0.00 0.00 81 1007.3
20170623141813 78 188 0.0 3.0 0.00 0.00 0.00 81 1007.3
20170623141308 78 188 1.0 5.0 0.00 0.00 0.00 80 1007.2
20170623140808 78 207 2.0 4.0 0.00 0.00 0.00 80 1007.2
20170623140310 78 213 1.0 8.0 0.00 0.00 0.00 80 1007.3
20170623135806 78 194 3.0 8.0 0.00 0.00 0.00 80 1007.3
20170623135308 78 178 2.0 6.0 0.00 0.00 0.00 80 1007.6
20170623134811 78 180 3.0 7.0 0.00 0.00 0.00 79 1007.6
20170623134305 78 235 3.0 6.0 0.00 0.00 0.00 79 1007.6
20170623133804 79 188 3.0 6.0 0.00 0.00 0.00 78 1007.6
20170623133305 79 188 3.0 5.0 0.00 0.00 0.00 79 1007.5
20170623132807 79 211 0.0 6.0 0.00 0.00 0.00 79 1007.5
20170623132309 79 209 2.0 6.0 0.00 0.00 0.00 80 1007.7
20170623131813 79 244 2.0 6.0 0.00 0.00 0.00 79 1007.7
20170623131309 79 201 2.0 5.0 0.00 0.00 0.00 79 1007.8
20170623130807 79 196 1.0 6.0 0.00 0.00 0.00 80 1008.0
20170623130310 79 215 3.0 6.0 0.00 0.00 0.00 79 1008.0
20170623125806 79 184 3.0 5.0 0.00 0.00 0.00 79 1008.1
20170623125309 78 178 2.0 6.0 0.00 0.00 0.00 80 1008.1
20170623124812 78 211 3.0 7.0 0.00 0.00 0.00 80 1008.1
20170623124315 78 188 3.0 7.0 0.00 0.00 0.00 81 1008.2
20170623123819 77 218 3.0 7.0 0.00 0.00 0.00 82 1008.3
20170623123302 77 229 4.0 8.0 0.00 0.00 0.00 81 1008.4
20170623122805 77 224 2.0 6.0 0.00 0.00 0.00 82 1008.4
20170623122308 77 214 2.0 6.0 0.00 0.00 0.00 82 1008.4
20170623121812 77 200 2.0 4.0 0.00 0.00 0.00 82 1008.4
20170623121307 77 200 2.0 4.0 0.00 0.00 0.00 82 1008.5
20170623120807 77 201 2.0 5.0 0.00 0.00 0.00 83 1008.4
20170623120310 77 187 3.0 5.0 0.00 0.00 0.00 82 1008.5
20170623115807 77 221 2.0 7.0 0.00 0.00 0.00 83 1008.6
20170623115307 76 238 2.0 7.0 0.00 0.00 0.00 83 1008.7
20170623114810 76 207 4.0 8.0 0.00 0.00 0.00 83 1008.7
20170623114316 76 227 3.0 8.0 0.00 0.00 0.00 83 1008.7
20170623113818 76 193 2.0 7.0 0.00 0.00 0.00 83 1008.7
20170623113302 75 241 2.0 6.0 0.00 0.00 0.00 84 1008.7
20170623112806 75 183 2.0 5.0 0.00 0.00 0.00 85 1008.6
20170623112309 74 192 2.0 5.0 0.00 0.00 0.00 86 1008.7
20170623111812 73 192 2.0 5.0 0.00 0.00 0.00 87 1008.7
20170623111302 72 192 1.0 3.0 0.00 0.00 0.00 88 1008.7
20170623110821 72 192 0.0 1.0 0.00 0.00 0.00 88 1008.6
20170623110305 71 192 0.0 0.0 0.00 0.00 0.00 89 1008.6
20170623105804 71 192 0.0 0.0 0.00 0.00 0.00 89 1008.7
20170623105307 71 192 0.0 0.0 0.00 0.00 0.00 89 1008.7
20170623104811 71 192 0.0 0.0 0.00 0.00 0.00 89 1008.6
20170623104317 71 192 0.0 0.0 0.00 0.00 0.00 88 1008.7
20170623103820 71 192 0.0 0.0 0.00 0.00 0.00 88 1008.7
20170623103322 71 192 0.0 0.0 0.00 0.00 0.00 88 1008.8
20170623102806 71 192 0.0 0.0 0.00 0.00 0.00 88 1008.8
20170623102309 71 192 0.0 0.0 0.00 0.00 0.00 88 1008.8
20170623101812 71 192 0.0 0.0 0.00 0.00 0.00 88 1008.8
20170623101307 71 192 0.0 0.0 0.00 0.00 0.00 88 1008.6
20170623100806 71 192 0.0 0.0 0.00 0.00 0.00 88 1008.5
20170623100310 71 192 0.0 0.0 0.00 0.00 0.00 88 1008.5
20170623095804 70 192 0.0 0.0 0.00 0.00 0.00 88 1008.5
20170623095307 70 192 0.0 0.0 0.00 0.00 0.00 88 1008.5
20170623094811 70 192 0.0 0.0 0.00 0.00 0.00 88 1008.4
20170623094315 71 192 0.0 0.0 0.00 0.00 0.00 88 1008.4
20170623093818 71 192 0.0 0.0 0.00 0.00 0.00 88 1008.5
20170623093321 71 192 0.0 0.0 0.00 0.00 0.00 88 1008.4
20170623092805 70 192 0.0 0.0 0.00 0.00 0.00 88 1008.4
20170623092308 70 192 0.0 0.0 0.00 0.00 0.00 88 1008.5
20170623091811 70 192 0.0 0.0 0.00 0.00 0.00 89 1008.5
20170623091305 70 192 0.0 0.0 0.00 0.00 0.00 89 1008.5
20170623090824 70 192 0.0 0.0 0.00 0.00 0.00 89 1008.5
20170623090308 70 192 0.0 0.0 0.00 0.00 0.00 89 1008.5
20170623085825 70 192 0.0 0.0 0.00 0.00 0.00 89 1008.5
20170623085307 70 192 0.0 0.0 0.00 0.00 0.00 88 1008.5
20170623084811 70 192 0.0 0.0 0.00 0.00 0.00 88 1008.5
20170623084315 70 192 0.0 0.0 0.00 0.00 0.00 88 1008.6
20170623083818 70 192 0.0 0.0 0.00 0.00 0.00 88 1008.6
20170623083322 70 192 0.0 0.0 0.00 0.00 0.00 88 1008.7
20170623082826 70 192 0.0 0.0 0.00 0.00 0.00 88 1008.7
20170623082309 70 192 0.0 0.0 0.00 0.00 0.00 88 1008.7
20170623081812 70 192 0.0 0.0 0.00 0.00 0.00 88 1008.6
20170623081320 70 192 0.0 0.0 0.00 0.00 0.00 88 1008.8
20170623080822 70 192 0.0 0.0 0.00 0.00 0.00 88 1008.7
20170623080326 70 192 0.0 0.0 0.00 0.00 0.00 88 1008.7
20170623075824 70 192 0.0 0.0 0.00 0.00 0.00 88 1008.7
20170623075308 70 192 0.0 0.0 0.00 0.00 0.00 88 1008.7
20170623074811 70 192 0.0 0.0 0.00 0.00 0.00 88 1008.8
20170623074321 70 192 0.0 0.0 0.00 0.00 0.00 88 1008.7
20170623073823 70 192 0.0 0.0 0.00 0.00 0.00 88 1008.7
20170623073322 70 192 0.0 0.0 0.00 0.00 0.00 88 1008.7
20170623072826 70 192 0.0 0.0 0.00 0.00 0.00 88 1008.7
20170623072310 70 192 0.0 0.0 0.00 0.00 0.00 88 1008.7
20170623071812 71 192 0.0 0.0 0.00 0.00 0.00 88 1008.9
20170623071308 71 192 0.0 0.0 0.00 0.00 0.00 88 1008.8
20170623070826 71 192 0.0 0.0 0.00 0.00 0.00 88 1008.8
20170623070309 71 192 0.0 0.0 0.00 0.00 0.00 88 1008.8
20170623065824 71 192 0.0 0.0 0.00 0.00 0.00 88 1009.0
20170623065308 71 192 0.0 0.0 0.00 0.00 0.00 88 1009.1
20170623064811 71 192 0.0 0.0 0.00 0.00 0.00 87 1009.1
20170623064314 71 192 0.0 0.0 0.00 0.00 0.00 87 1009.1
20170623063817 71 192 0.0 0.0 0.00 0.00 0.00 88 1009.2
20170623063321 71 192 0.0 0.0 0.00 0.00 0.00 87 1009.4
20170623062824 71 192 0.0 0.0 0.00 0.00 0.00 87 1009.5
20170623062308 70 192 0.0 0.0 0.00 0.00 0.00 87 1009.6
20170623061812 70 192 0.0 0.0 0.00 0.00 0.00 87 1009.6
20170623061318 70 192 0.0 0.0 0.00 0.00 0.00 87 1009.6
20170623060822 70 192 0.0 0.0 0.00 0.00 0.00 87 1009.8
20170623060326 70 192 0.0 0.0 0.00 0.00 0.00 87 1009.9
20170623055823 70 192 0.0 0.0 0.00 0.00 0.00 87 1009.8
20170623055327 70 192 0.0 0.0 0.00 0.00 0.00 87 1009.9
20170623054810 70 192 0.0 0.0 0.00 0.00 0.00 87 1009.9
20170623054313 70 192 0.0 0.0 0.00 0.00 0.00 87 1010.0
20170623053817 70 192 0.0 0.0 0.00 0.00 0.00 87 1010.1
20170623053320 70 192 0.0 0.0 0.00 0.00 0.00 87 1010.2
20170623052825 70 192 0.0 0.0 0.00 0.00 0.00 87 1010.2
20170623052328 70 192 0.0 0.0 0.00 0.00 0.00 87 1010.3
20170623051811 70 192 0.0 0.0 0.00 0.00 0.00 87 1010.4
20170623051320 70 192 0.0 0.0 0.00 0.00 0.00 87 1010.5
20170623050824 71 192 0.0 0.0 0.00 0.00 0.00 86 1010.5
20170623050327 71 192 0.0 0.0 0.00 0.00 0.00 86 1010.4
20170623045824 71 192 0.0 0.0 0.00 0.00 0.00 86 1010.5
20170623045327 71 192 0.0 0.0 0.00 0.00 0.00 85 1010.6
20170623044810 71 192 0.0 0.0 0.00 0.00 0.00 85 1010.6
20170623044315 71 192 0.0 0.0 0.00 0.00 0.00 85 1010.7
20170623043819 71 192 0.0 1.0 0.00 0.00 0.00 85 1010.8
20170623043322 71 192 0.0 2.0 0.00 0.00 0.00 85 1010.8
20170623042825 71 192 0.0 2.0 0.00 0.00 0.00 85 1011.0
20170623042328 71 192 0.0 2.0 0.00 0.00 0.00 85 1011.0
20170623041812 71 192 0.0 0.0 0.00 0.00 0.00 84 1011.0
20170623041320 71 192 0.0 3.0 0.00 0.00 0.00 84 1011.1
20170623040824 71 192 0.0 3.0 0.00 0.00 0.00 84 1011.1
20170623040327 71 192 0.0 3.0 0.00 0.00 0.00 84 1011.1
20170623035825 71 192 1.0 2.0 0.00 0.00 0.00 84 1011.2
20170623035327 71 192 0.0 2.0 0.00 0.00 0.00 83 1011.2
20170623034830 71 192 1.0 2.0 0.00 0.00 0.00 83 1011.1
20170623034321 71 192 0.0 2.0 0.00 0.00 0.00 82 1011.1
20170623033824 71 192 0.0 2.0 0.00 0.00 0.00 82 1011.1
20170623033328 71 192 0.0 2.0 0.00 0.00 0.00 82 1011.2
20170623032832 71 192 0.0 2.0 0.00 0.00 0.00 81 1011.2
20170623032330 72 192 0.0 2.0 0.00 0.00 0.00 81 1011.2
20170623031832 72 192 1.0 5.0 0.00 0.00 0.00 80 1011.3
20170623031322 72 192 1.0 5.0 0.00 0.00 0.00 80 1011.2
20170623030826 72 206 1.0 3.0 0.00 0.00 0.00 80 1011.3
20170623030328 72 206 0.0 2.0 0.00 0.00 0.00 79 1011.3
20170623025824 72 206 0.0 4.0 0.00 0.00 0.00 79 1011.2
20170623025327 72 206 2.0 4.0 0.00 0.00 0.00 78 1011.3
20170623024830 72 227 1.0 4.0 0.00 0.00 0.00 78 1011.3
20170623024316 72 227 2.0 4.0 0.00 0.00 0.00 77 1011.5
20170623023820 72 228 1.0 3.0 0.00 0.00 0.00 76 1011.4
20170623023323 72 234 1.0 3.0 0.00 0.00 0.00 76 1011.4
20170623022827 72 234 0.0 4.0 0.00 0.00 0.00 75 1011.4
20170623022329 72 234 2.0 4.0 0.00 0.00 0.00 75 1011.4
20170623021832 72 226 1.0 5.0 0.00 0.00 0.00 74 1011.4
20170623021323 72 226 2.0 5.0 0.00 0.00 0.00 73 1011.5
20170623020826 72 227 1.0 4.0 0.00 0.00 0.00 72 1011.6
20170623020330 72 233 1.0 4.0 0.00 0.00 0.00 72 1011.6
20170623015829 72 233 1.0 4.0 0.00 0.00 0.00 71 1011.5
20170623015326 72 233 2.0 4.0 0.00 0.00 0.00 71 1011.6
20170623014829 73 234 1.0 4.0 0.00 0.00 0.00 70 1011.5
20170623014323 73 233 1.0 3.0 0.00 0.00 0.00 70 1011.6
20170623013826 73 233 1.0 3.0 0.00 0.00 0.00 69 1011.6
20170623013329 73 233 0.0 3.0 0.00 0.00 0.00 69 1011.7
20170623012830 73 233 1.0 3.0 0.00 0.00 0.00 68 1011.7
20170623012332 73 233 1.0 3.0 0.00 0.00 0.00 67 1011.8
20170623011834 73 211 1.0 3.0 0.00 0.00 0.00 67 1011.8
20170623011320 73 211 1.0 4.0 0.00 0.00 0.00 67 1011.7
20170623010823 74 211 1.0 4.0 0.00 0.00 0.00 67 1011.7
20170623010327 74 208 1.0 3.0 0.00 0.00 0.00 66 1011.7
20170623005824 74 208 1.0 3.0 0.00 0.00 0.00 66 1011.7
20170623005327 74 208 0.0 3.0 0.00 0.00 0.00 65 1011.6
20170623004830 74 208 1.0 4.0 0.00 0.00 0.00 64 1011.7
20170623004321 75 208 2.0 4.0 0.00 0.00 0.00 63 1011.7
20170623003824 75 200 2.0 5.0 0.00 0.00 0.00 62 1011.7
20170623003327 75 200 2.0 5.0 0.00 0.00 0.00 61 1011.6
20170623002829 75 208 2.0 5.0 0.00 0.00 0.00 60 1011.6
20170623002333 75 230 3.0 6.0 0.00 0.00 0.00 60 1011.7
20170623001835 75 211 3.0 6.0 0.00 0.00 0.00 60 1011.6
20170623001324 76 189 2.0 4.0 0.00 0.00 0.00 61 1011.6